QPF
0.00 0.00 0.00 0.00 0.00 0.00 0.00 0.00 0.00 0.00 0.00 0.00 0.00 0.00 0.00 0.00 0.00 0.00 0.00 0.00 0.00 0.00 0.00 0.00 0.01 0.01 0.00 0.01 0.01 0.00 0.00 0.00 0.00 0.00 0.00 0.00 0.00 0.00 0.00 0.00 0.00 0.00 0.01
0.00 0.00 0.00 0.00 0.00 0.00 0.00 0.00 0.00 0.00 0.00 0.00 0.00 0.00 0.00 0.00 0.00 0.00 0.00 0.00 0.00 0.00 0.00 0.00 0.01 0.02 0.01 0.00 0.00 0.00 0.00 0.00 0.00 0.00 0.00 0.01 0.00 0.00 0.00 0.00 0.00 0.00 0.00
0.00 0.00 0.00 0.00 0.00 0.00 0.00 0.00 0.00 0.00 0.00 0.00 0.00 0.00 0.00 0.00 0.00 0.00 0.00 0.00 0.00 0.00 0.00 0.00 0.01 0.03 0.01 0.00 0.01 0.00 0.00 0.00 0.00 0.00 0.00 0.00 0.00 0.00 0.00 0.00 0.00 0.00 0.01
0.00 0.00 0.00 0.00 0.00 0.00 0.00 0.00 0.00 0.00 0.00 0.00 0.00 0.01 0.00 0.00 0.00 0.00 0.00 0.00 0.00 0.00 0.00 0.00 0.00 0.01 0.01 0.00 0.00 0.03 0.00 0.00 0.00 0.00 0.00 0.00 0.02 0.01 0.00 0.00 0.00 0.00 0.01
0.00 0.00 0.00 0.00 0.00 0.00 0.00 0.00 0.00 0.00 0.00 0.00 0.00 0.00 0.01 0.00 0.00 0.00 0.00 0.00 0.00 0.00 0.00 0.00 0.00 0.00 0.00 0.00 0.00 0.05 0.02 0.00 0.00 0.00 0.00 0.00 0.01 0.01 0.01 0.00 0.00 0.00 0.00
0.00 0.00 0.00 0.00 0.00 0.00 0.00 0.00 0.00 0.00 0.00 0.00 0.00 0.00 0.00 0.01 0.00 0.00 0.00 0.00 0.00 0.00 0.00 0.00 0.00 0.00 0.00 0.00 0.00 0.02 0.04 0.00 0.00 0.00 0.00 0.00 0.01 0.01 0.01 0.00 0.00 0.00 0.00
0.00 0.00 0.00 0.00 0.00 0.00 0.00 0.00 0.00 0.00 0.00 0.00 0.00 0.00 0.00 0.00 0.01 0.00 0.00 0.00 0.00 0.00 0.00 0.00 0.00 0.00 0.00 0.00 0.00 0.00 0.03 0.00 0.00 0.00 0.00 0.00 0.00 0.00 0.01 0.00 0.00 0.00 0.01
0.00 0.00 0.00 0.00 0.00 0.00 0.00 0.00 0.00 0.00 0.00 0.00 0.00 0.00 0.00 0.01 0.01 0.01 0.00 0.00 0.00 0.00 0.00 0.00 0.00 0.00 0.00 0.00 0.00 0.00 0.02 0.01 0.00 0.00 0.00 0.00 0.00 0.00 0.00 0.00 0.00 0.00 0.01
0.00 0.00 0.00 0.00 0.00 0.00 0.00 0.00 0.00 0.00 0.00 0.00 0.00 0.00 0.00 0.01 0.00 0.00 0.00 0.00 0.00 0.00 0.00 0.00 0.00 0.00 0.00 0.00 0.00 0.00 0.01 0.01 0.00 0.00 0.00 0.00 0.00 0.00 0.00 0.00 0.00 0.00 0.01
0.00 0.00 0.00 0.00 0.00 0.00 0.00 0.00 0.00 0.00 0.00 0.00 0.00 0.00 0.00 0.00 0.00 0.00 0.00 0.00 0.00 0.00 0.00 0.00 0.00 0.00 0.00 0.00 0.00 0.00 0.00 0.00 0.00 0.00 0.00 0.00 0.00 0.01 0.01 0.00 0.00 0.00 0.00
0.00 0.00 0.00 0.00 0.00 0.00 0.00 0.00 0.00 0.00 0.00 0.00 0.00 0.00 0.00 0.00 0.00 0.00 0.00 0.00 0.00 0.00 0.00 0.00 0.00 0.00 0.00 0.00 0.00 0.00 0.00 0.00 0.00 0.00 0.00 0.00 0.00 0.00 0.02 0.01 0.01 0.02 0.00
0.00 0.00 0.00 0.00 0.00 0.00 0.00 0.00 0.00 0.00 0.00 0.00 0.00 0.00 0.00 0.00 0.00 0.00 0.00 0.00 0.00 0.00 0.00 0.00 0.00 0.00 0.00 0.00 0.00 0.00 0.00 0.00 0.00 0.00 0.00 0.02 0.01 0.00 0.01 0.03 0.02 0.02 0.01
0.00 0.00 0.00 0.00 0.00 0.00 0.00 0.00 0.00 0.00 0.00 0.00 0.00 0.00 0.00 0.00 0.00 0.00 0.00 0.00 0.00 0.00 0.00 0.00 0.00 0.00 0.00 0.00 0.00 0.00 0.00 0.00 0.00 0.00 0.00 0.02 0.03 0.01 0.00 0.03 0.02 0.01 0.00
0.00 0.00 0.00 0.00 0.00 0.00 0.00 0.00 0.00 0.00 0.00 0.00 0.00 0.00 0.00 0.00 0.00 0.00 0.00 0.00 0.00 0.00 0.00 0.00 0.00 0.00 0.00 0.00 0.00 0.00 0.00 0.00 0.00 0.00 0.00 0.01 0.02 0.01 0.00 0.01 0.01 0.00 0.00
0.00 0.00 0.00 0.00 0.00 0.00 0.00 0.00 0.00 0.00 0.00 0.00 0.00 0.00 0.00 0.00 0.00 0.00 0.00 0.00 0.00 0.00 0.00 0.00 0.00 0.00 0.00 0.00 0.00 0.00 0.00 0.00 0.00 0.00 0.00 0.00 0.01 0.01 0.00 0.00 0.00 0.00 0.00
0.00 0.00 0.00 0.00 0.00 0.00 0.00 0.00 0.00 0.00 0.00 0.00 0.00 0.00 0.00 0.00 0.00 0.00 0.00 0.00 0.00 0.00 0.00 0.00 0.00 0.00 0.00 0.00 0.00 0.00 0.00 0.00 0.00 0.00 0.00 0.00 0.01 0.01 0.00 0.00 0.00 0.00 0.00
0.00 0.00 0.00 0.00 0.00 0.00 0.00 0.00 0.00 0.00 0.00 0.00 0.00 0.00 0.00 0.00 0.00 0.00 0.00 0.00 0.00 0.00 0.00 0.00 0.00 0.00 0.00 0.00 0.00 0.00 0.00 0.00 0.00 0.00 0.00 0.00 0.00 0.00 0.00 0.00 0.00 0.00 0.00
0.00 0.00 0.00 0.00 0.00 0.00 0.00 0.00 0.00 0.00 0.00 0.00 0.00 0.00 0.00 0.00 0.00 0.00 0.00 0.00 0.00 0.00 0.00 0.00 0.00 0.00 0.00 0.00 0.00 0.00 0.00 0.00 0.00 0.00 0.00 0.00 0.00 0.01 0.00 0.00 0.00 0.00 0.00
0.00 0.00 0.00 0.00 0.00 0.00 0.00 0.00 0.00 0.00 0.00 0.00 0.00 0.00 0.00 0.00 0.00 0.00 0.00 0.00 0.00 0.00 0.00 0.00 0.00 0.00 0.00 0.00 0.00 0.00 0.00 0.00 0.00 0.00 0.00 0.00 0.00 0.00 0.00 0.00 0.00 0.00 0.00
0.00 0.00 0.00 0.00 0.00 0.00 0.00 0.00 0.00 0.00 0.00 0.00 0.00 0.00 0.00 0.00 0.00 0.00 0.00 0.00 0.00 0.00 0.00 0.00 0.00 0.00 0.00 0.00 0.00 0.00 0.00 0.00 0.00 0.00 0.00 0.00 0.00 0.00 0.00 0.00 0.00 0.00 0.00
0.00 0.00 0.00 0.00 0.00 0.00 0.00 0.00 0.01 0.01 0.01 0.00 0.00 0.00 0.00 0.00 0.00 0.00 0.00 0.00 0.00 0.00 0.00 0.00 0.00 0.00 0.00 0.00 0.00 0.00 0.00 0.00 0.00 0.00 0.00 0.00 0.00 0.00 0.00 0.00 0.00 0.00 0.00
0.00 0.00 0.00 0.00 0.00 0.00 0.00 0.01 0.01 0.01 0.01 0.01 0.01 0.00 0.00 0.00 0.00 0.00 0.00 0.00 0.00 0.00 0.00 0.00 0.00 0.00 0.00 0.00 0.00 0.00 0.00 0.00 0.00 0.00 0.00 0.00 0.00 0.00 0.00 0.00 0.00 0.00 0.00
0.00 0.00 0.00 0.00 0.00 0.00 0.00 0.00 0.00 0.00 0.00 0.00 0.00 0.00 0.00 0.00 0.00 0.00 0.00 0.00 0.00 0.00 0.00 0.00 0.00 0.00 0.00 0.00 0.00 0.00 0.00 0.00 0.00 0.00 0.00 0.00 0.00 0.00 0.00 0.00 0.00 0.00 0.00
0.00 0.00 0.00 0.00 0.00 0.00 0.00 0.00 0.00 0.00 0.00 0.00 0.00 0.00 0.00 0.00 0.00 0.00 0.00 0.00 0.00 0.00 0.00 0.00 0.00 0.00 0.00 0.00 0.00 0.00 0.00 0.00 0.00 0.00 0.00 0.00 0.00 0.00 0.00 0.00 0.00 0.00 0.00
0.00 0.00 0.00 0.00 0.00 0.00 0.00 0.01 0.02 0.01 0.00 0.00 0.00 0.00 0.00 0.00 0.00 0.00 0.01 0.00 0.00 0.00 0.00 0.00 0.00 0.00 0.00 0.00 0.00 0.00 0.00 0.00 0.00 0.00 0.00 0.00 0.00 0.00 0.00 0.00 0.00 0.00 0.00
0.00 0.00 0.00 0.00 0.00 0.00 0.00 0.02 0.02 0.00 0.00 0.00 0.00 0.00 0.00 0.00 0.00 0.01 0.01 0.01 0.00 0.00 0.00 0.00 0.00 0.00 0.00 0.00 0.01 0.00 0.00 0.00 0.00 0.00 0.00 0.00 0.00 0.00 0.00 0.00 0.00 0.00 0.00
MSLP
1021.23 1021.45 1020.92 1020.69 1020.47 1020.20 1019.92 1019.61 1019.30 1018.71 1018.48 1017.99 1017.16 1017.07 1016.99 1017.58 1017.66 1017.42 1017.52 1017.27 1016.75 1017.19 1017.64 1017.93 1018.39 1018.59 1019.00 1019.14 1019.42 1019.61 1019.60 1019.81 1019.89 1019.88 1019.77 1019.70 1019.80 1019.80 1019.74 1019.76 1019.85 1019.93 1019.96
1022.43 1021.64 1021.33 1021.18 1020.84 1020.65 1020.49 1019.82 1019.45 1019.27 1018.75 1018.57 1017.84 1016.74 1016.54 1016.82 1017.28 1017.46 1017.40 1017.66 1016.99 1016.90 1017.09 1017.57 1018.04 1018.27 1018.52 1019.13 1019.29 1019.84 1019.83 1019.95 1020.09 1020.12 1020.12 1020.00 1019.95 1020.12 1020.13 1020.08 1020.17 1020.20 1020.25
1022.33 1021.93 1021.81 1021.54 1021.34 1020.99 1020.61 1020.14 1019.67 1019.38 1019.14 1018.81 1018.46 1017.56 1016.39 1016.45 1016.77 1016.94 1017.10 1017.30 1017.42 1017.15 1016.92 1017.01 1017.58 1018.05 1018.27 1018.81 1019.23 1019.52 1019.99 1020.01 1020.19 1020.26 1020.35 1020.35 1020.25 1020.34 1020.47 1020.39 1020.42 1020.52 1020.50
1022.47 1022.33 1022.07 1021.86 1021.89 1021.39 1020.87 1020.64 1020.28 1019.79 1019.60 1019.25 1018.89 1018.36 1017.61 1016.26 1016.34 1016.61 1016.89 1016.90 1017.07 1017.18 1017.36 1017.07 1016.83 1017.65 1018.00 1018.41 1019.01 1019.06 1019.68 1020.10 1020.17 1020.34 1020.49 1020.60 1020.62 1020.51 1020.67 1020.72 1020.68 1020.74 1020.79
1022.77 1022.72 1022.67 1022.56 1022.22 1021.77 1021.43 1021.11 1020.69 1020.49 1019.97 1019.65 1019.12 1018.61 1018.04 1017.17 1016.37 1016.18 1016.49 1016.71 1016.80 1016.74 1017.05 1017.27 1017.11 1016.62 1017.34 1017.76 1018.59 1019.01 1019.11 1019.86 1020.07 1020.35 1020.55 1020.55 1020.64 1020.67 1020.73 1020.87 1020.93 1020.90 1020.99
1023.12 1023.17 1022.94 1022.69 1022.43 1021.99 1021.74 1021.48 1021.28 1020.97 1020.55 1019.96 1019.32 1018.33 1017.67 1016.98 1016.58 1016.03 1015.94 1016.37 1016.53 1016.71 1016.57 1017.13 1017.52 1017.52 1017.26 1017.04 1018.04 1018.74 1018.85 1019.41 1019.75 1020.05 1020.46 1020.61 1020.70 1020.76 1020.86 1020.96 1021.09 1021.08 1021.06
1023.33 1023.11 1022.82 1022.70 1022.53 1022.38 1022.24 1022.14 1021.81 1021.60 1021.03 1020.41 1019.39 1018.08 1016.88 1016.03 1015.89 1015.99 1015.52 1015.75 1016.14 1016.41 1016.56 1016.74 1016.88 1017.41 1017.36 1017.36 1017.14 1017.98 1018.72 1018.93 1019.54 1019.66 1020.13 1020.48 1020.68 1020.68 1020.93 1021.11 1021.23 1021.23 1021.18
1023.58 1023.12 1022.98 1022.80 1022.73 1022.62 1022.52 1022.42 1022.25 1022.04 1021.66 1020.80 1020.25 1019.28 1017.95 1015.85 1015.50 1015.40 1015.35 1015.41 1015.60 1015.87 1016.23 1016.42 1016.80 1017.09 1017.22 1017.46 1017.21 1017.21 1018.00 1018.50 1019.04 1019.33 1019.58 1020.14 1020.50 1020.70 1021.03 1021.17 1021.28 1021.29 1021.34
1023.48 1023.39 1023.11 1022.96 1022.91 1022.79 1022.58 1022.37 1022.35 1022.36 1022.11 1021.52 1021.13 1020.82 1019.47 1017.84 1016.71 1014.95 1014.80 1014.89 1015.20 1015.40 1015.68 1015.94 1016.26 1016.50 1016.70 1017.28 1017.34 1016.91 1017.30 1017.91 1018.43 1018.93 1019.15 1019.50 1020.13 1020.54 1020.81 1021.07 1021.24 1021.30 1021.44
1023.42 1023.28 1023.11 1022.85 1022.79 1022.73 1022.67 1022.55 1022.27 1022.59 1022.46 1022.01 1021.58 1020.73 1020.55 1020.02 1019.13 1017.01 1014.95 1014.47 1014.67 1014.62 1015.07 1015.23 1015.62 1015.80 1016.23 1016.38 1016.91 1016.89 1016.69 1017.27 1017.84 1018.39 1018.72 1019.00 1019.46 1020.03 1020.38 1020.68 1021.03 1021.26 1021.37
1023.47 1023.29 1023.05 1022.84 1022.59 1022.48 1022.46 1022.47 1022.55 1022.71 1022.56 1022.23 1022.00 1021.38 1020.81 1020.27 1020.01 1019.45 1017.53 1015.47 1014.70 1014.28 1014.48 1014.59 1014.66 1014.95 1015.63 1015.97 1016.02 1016.49 1016.45 1016.65 1017.16 1017.68 1018.32 1018.49 1018.80 1019.27 1019.81 1020.17 1020.49 1020.88 1021.22
1023.50 1023.22 1023.01 1022.91 1022.53 1022.45 1022.38 1022.28 1022.28 1022.49 1022.41 1021.99 1021.78 1021.51 1021.18 1020.51 1019.52 1019.36 1018.50 1017.12 1015.89 1013.97 1013.82 1013.95 1013.70 1013.93 1014.58 1014.94 1015.23 1015.89 1016.03 1016.15 1016.55 1016.85 1017.70 1018.13 1018.28 1018.73 1019.16 1019.64 1020.02 1020.55 1020.91
1023.57 1023.29 1023.09 1022.86 1022.52 1022.43 1022.21 1022.06 1022.01 1021.81 1021.74 1021.58 1021.40 1021.08 1020.85 1020.36 1019.94 1019.47 1019.03 1017.91 1017.49 1015.56 1013.53 1013.07 1012.75 1013.10 1013.53 1014.08 1014.20 1015.08 1015.57 1015.71 1015.98 1016.41 1016.73 1017.57 1017.98 1018.25 1018.56 1019.00 1019.38 1020.10 1020.50
1023.48 1023.31 1022.96 1022.71 1022.46 1022.16 1021.91 1021.70 1021.53 1021.30 1021.23 1021.04 1020.81 1020.64 1020.28 1019.84 1019.57 1019.09 1018.73 1018.74 1017.63 1016.87 1014.38 1011.96 1012.38 1012.35 1012.50 1013.13 1013.45 1014.42 1014.74 1014.81 1015.25 1015.75 1016.05 1016.71 1017.47 1017.86 1018.23 1018.67 1019.02 1019.69 1020.14
1023.30 1022.77 1022.56 1022.52 1021.97 1021.64 1021.51 1021.22 1021.05 1020.92 1020.69 1020.48 1020.20 1019.91 1019.49 1019.12 1019.00 1018.73 1018.37 1018.00 1017.73 1016.99 1014.50 1011.82 1011.65 1011.64 1011.86 1012.44 1012.86 1013.52 1014.01 1014.09 1014.66 1014.85 1015.59 1016.00 1016.86 1017.43 1017.85 1018.30 1018.73 1019.12 1019.85
1023.00 1022.73 1022.39 1021.94 1021.55 1021.25 1020.94 1020.71 1020.50 1020.25 1019.93 1019.51 1019.22 1019.00 1018.41 1018.24 1018.15 1017.64 1017.46 1017.22 1016.93 1016.51 1015.38 1013.62 1011.59 1011.17 1011.38 1011.51 1011.96 1012.55 1013.03 1013.66 1014.21 1014.49 1014.80 1015.39 1016.13 1016.83 1017.20 1017.78 1018.42 1018.57 1019.47
1022.66 1022.23 1021.68 1021.27 1020.89 1020.44 1020.11 1019.87 1019.56 1019.34 1019.00 1018.64 1018.37 1017.93 1017.17 1017.21 1017.06 1016.86 1016.48 1015.97 1015.70 1015.35 1014.44 1012.89 1013.00 1012.56 1010.59 1010.66 1011.03 1011.56 1012.00 1012.47 1013.39 1013.70 1014.00 1014.69 1015.40 1016.07 1016.57 1017.16 1017.96 1018.53 1018.75
1021.97 1021.52 1020.99 1020.53 1020.14 1019.67 1019.20 1018.85 1018.45 1018.06 1017.55 1017.10 1016.93 1016.90 1015.95 1015.96 1015.49 1015.65 1015.39 1015.01 1014.56 1014.31 1014.22 1013.15 1012.33 1012.13 1009.79 1009.48 1010.08 1010.66 1011.04 1011.44 1011.76 1012.91 1013.34 1013.77 1014.52 1015.30 1016.00 1016.48 1017.17 1017.84 1018.42
1021.25 1020.66 1020.25 1019.81 1019.26 1018.64 1017.96 1017.42 1016.94 1016.45 1015.97 1015.66 1015.37 1015.05 1014.29 1014.55 1014.01 1013.93 1013.76 1013.55 1013.26 1013.34 1013.09 1013.09 1010.99 1011.11 1010.15 1008.56 1009.11 1009.87 1010.32 1011.10 1011.06 1011.91 1012.88 1013.04 1013.55 1014.42 1015.16 1015.74 1016.38 1017.14 1017.67
1020.62 1019.98 1019.45 1018.88 1018.09 1017.17 1016.53 1015.94 1015.30 1014.51 1013.85 1013.40 1013.15 1012.83 1012.28 1012.49 1011.92 1011.94 1012.02 1011.77 1011.99 1012.15 1012.43 1011.40 1010.30 1010.13 1009.63 1007.64 1007.76 1008.74 1009.76 1010.07 1010.49 1011.27 1012.19 1012.32 1012.84 1013.55 1014.35 1014.97 1015.53 1016.26 1016.88
1020.03 1019.47 1018.67 1017.81 1016.83 1016.01 1015.27 1014.49 1013.79 1012.94 1012.10 1011.26 1010.70 1010.12 1009.58 1009.88 1009.80 1009.78 1009.84 1009.92 1009.74 1009.73 1009.47 1009.56 1009.50 1009.45 1009.26 1006.47 1006.06 1006.65 1007.71 1008.94 1009.41 1010.29 1011.49 1011.70 1012.19 1012.80 1013.49 1014.21 1014.63 1015.28 1015.92
1019.54 1018.78 1017.90 1016.92 1015.83 1015.08 1014.19 1013.42 1012.45 1011.40 1010.40 1009.33 1008.17 1007.45 1007.08 1006.99 1006.98 1007.40 1007.69 1007.80 1008.09 1007.53 1007.70 1008.36 1008.28 1007.64 1006.75 1004.67 1004.91 1005.16 1006.44 1007.62 1008.54 1009.39 1010.54 1010.91 1011.15 1011.67 1012.42 1013.14 1013.55 1014.26 1014.91
1018.83 1018.02 1017.05 1016.05 1015.18 1014.27 1013.39 1012.19 1011.03 1009.77 1008.57 1007.26 1006.05 1005.05 1004.26 1003.90 1003.89 1004.63 1005.19 1005.55 1005.88 1006.10 1005.60 1006.39 1005.99 1004.68 1005.77 1002.78 1003.15 1004.08 1004.89 1005.69 1006.20 1007.94 1009.48 1009.46 1009.85 1010.37 1011.13 1011.86 1012.53 1013.19 1014.02
1018.40 1017.57 1016.59 1015.44 1014.31 1013.31 1012.29 1010.99 1009.76 1008.06 1006.04 1003.90 1002.34 1000.89 1000.38 1000.33 1000.70 1001.67 1002.63 1003.01 1003.51 1003.79 1003.96 1004.01 1003.97 1003.11 1003.78 1002.92 1001.66 1002.19 1003.25 1004.56 1006.17 1007.09 1008.13 1007.92 1008.38 1008.98 1009.99 1010.67 1011.41 1012.09 1012.76
1017.97 1017.19 1016.22 1015.04 1013.94 1012.70 1011.40 1009.94 1008.19 1006.05 1003.59 1001.46 999.64 997.23 995.38 996.15 997.03 998.63 999.91 1000.56 1001.18 1001.37 1002.22 1002.89 1003.02 1003.07 1003.05 1002.93 1001.38 1002.18 1003.08 1004.04 1004.96 1005.77 1007.09 1007.56 1007.60 1008.31 1009.04 1009.70 1010.32 1011.06 1011.59
1017.86 1017.03 1015.91 1014.78 1013.60 1012.11 1010.68 1009.08 1007.08 1004.92 1002.54 1000.36 997.96 994.65 992.70 993.23 994.42 995.75 997.16 998.21 998.85 998.97 999.91 1000.44 1001.50 1001.91 1002.45 1002.35 1002.21 999.79 1000.82 1002.12 1003.14 1004.96 1005.74 1006.45 1006.95 1007.60 1008.52 1008.71 1009.33 1009.86 1010.65
Thickness
5623 5621 5628 5632 5636 5640 5645 5650 5655 5661 5664 5668 5674 5679 5684 5683 5685 5690 5691 5693 5700 5695 5693 5694 5690 5688 5683 5683 5679 5677 5677 5675 5676 5676 5677 5677 5675 5674 5673 5671 5669 5667 5665
5605 5614 5619 5622 5626 5630 5633 5641 5648 5652 5656 5658 5666 5675 5680 5682 5683 5683 5688 5687 5693 5696 5695 5692 5691 5690 5688 5681 5681 5675 5675 5673 5672 5674 5674 5675 5675 5672 5671 5670 5668 5666 5664
5599 5605 5609 5613 5616 5620 5624 5631 5638 5642 5648 5652 5655 5664 5675 5677 5681 5684 5685 5686 5685 5689 5695 5693 5691 5690 5690 5682 5681 5678 5673 5672 5671 5671 5671 5671 5672 5671 5669 5669 5667 5665 5664
5589 5593 5598 5602 5604 5609 5614 5617 5624 5632 5636 5641 5646 5652 5659 5672 5676 5680 5682 5683 5683 5685 5685 5691 5693 5689 5689 5685 5679 5682 5676 5671 5670 5669 5669 5669 5669 5670 5668 5666 5666 5664 5663
5576 5580 5583 5587 5591 5597 5602 5606 5610 5615 5623 5628 5636 5643 5650 5657 5667 5673 5678 5679 5679 5682 5683 5682 5686 5693 5690 5689 5680 5678 5680 5673 5671 5668 5666 5668 5668 5668 5668 5666 5665 5665 5662
5562 5565 5570 5575 5579 5585 5590 5594 5597 5601 5607 5615 5624 5638 5644 5652 5657 5666 5672 5674 5676 5675 5681 5677 5676 5680 5685 5691 5683 5678 5679 5675 5673 5670 5666 5665 5666 5666 5666 5666 5664 5663 5663
5550 5554 5559 5563 5567 5571 5574 5577 5582 5586 5592 5599 5614 5629 5642 5652 5654 5657 5665 5668 5671 5671 5674 5674 5676 5673 5678 5682 5687 5680 5676 5676 5672 5673 5668 5665 5664 5665 5663 5663 5662 5662 5662
5537 5542 5546 5550 5554 5558 5561 5564 5568 5572 5578 5586 5594 5607 5622 5644 5649 5652 5658 5663 5665 5666 5666 5668 5669 5670 5672 5673 5681 5682 5677 5676 5673 5672 5672 5666 5663 5663 5662 5661 5661 5661 5661
5524 5527 5532 5536 5540 5543 5547 5551 5554 5557 5562 5569 5574 5578 5597 5621 5624 5645 5650 5656 5659 5661 5661 5662 5664 5666 5669 5667 5671 5680 5678 5675 5674 5672 5672 5671 5664 5662 5661 5660 5659 5660 5660
5511 5514 5518 5524 5527 5531 5533 5535 5540 5542 5546 5551 5557 5567 5569 5577 5588 5609 5638 5646 5650 5657 5656 5658 5657 5660 5662 5665 5664 5671 5677 5674 5673 5671 5671 5671 5668 5663 5661 5660 5659 5659 5659
5497 5501 5505 5510 5514 5518 5521 5523 5525 5525 5530 5535 5539 5546 5554 5562 5566 5576 5596 5623 5634 5647 5650 5653 5653 5655 5656 5660 5663 5665 5671 5673 5671 5671 5667 5670 5670 5668 5663 5661 5661 5659 5658
5482 5487 5491 5495 5500 5503 5506 5509 5512 5513 5515 5522 5525 5530 5536 5546 5560 5560 5575 5593 5605 5634 5641 5644 5652 5652 5651 5656 5660 5660 5664 5669 5668 5670 5666 5665 5668 5668 5666 5663 5661 5659 5658
5468 5473 5476 5480 5485 5487 5491 5494 5497 5501 5504 5509 5512 5517 5522 5531 5537 5544 5552 5570 5572 5597 5626 5640 5650 5648 5648 5651 5658 5657 5659 5663 5665 5665 5667 5662 5664 5665 5667 5665 5662 5659 5658
5454 5457 5462 5466 5469 5473 5476 5479 5483 5487 5489 5494 5499 5502 5509 5517 5522 5530 5538 5540 5554 5566 5603 5637 5637 5643 5645 5647 5653 5651 5653 5659 5663 5662 5664 5663 5661 5661 5663 5662 5661 5658 5657
5440 5445 5448 5450 5455 5459 5461 5464 5468 5470 5473 5477 5483 5488 5496 5503 5507 5514 5520 5527 5536 5542 5582 5620 5629 5638 5637 5638 5643 5645 5648 5652 5656 5661 5659 5662 5658 5658 5658 5658 5658 5657 5654
5428 5430 5432 5437 5441 5443 5445 5449 5452 5453 5457 5461 5465 5470 5480 5487 5491 5500 5506 5513 5519 5531 5542 5583 5615 5624 5626 5630 5635 5640 5644 5645 5646 5651 5654 5656 5656 5655 5656 5655 5653 5656 5651
5416 5419 5423 5426 5428 5431 5432 5434 5435 5436 5439 5441 5442 5447 5461 5462 5470 5477 5486 5498 5508 5518 5534 5563 5581 5593 5617 5622 5626 5630 5635 5640 5640 5644 5648 5651 5653 5652 5652 5652 5649 5649 5651
5406 5409 5414 5416 5417 5416 5417 5417 5418 5418 5421 5422 5420 5418 5435 5435 5446 5453 5461 5475 5492 5505 5517 5532 5564 5573 5608 5619 5621 5620 5628 5633 5639 5638 5643 5648 5650 5649 5647 5649 5647 5646 5646
5397 5401 5403 5404 5404 5404 5406 5404 5402 5398 5395 5393 5391 5391 5405 5402 5415 5427 5439 5453 5472 5486 5501 5511 5545 5561 5584 5606 5610 5613 5616 5620 5629 5632 5633 5639 5645 5645 5645 5646 5645 5643 5644
5388 5392 5393 5394 5395 5396 5392 5387 5382 5378 5373 5366 5360 5359 5367 5364 5380 5390 5407 5427 5445 5460 5474 5498 5524 5545 5563 5598 5603 5603 5602 5613 5623 5623 5626 5632 5638 5642 5642 5642 5643 5642 5643
5379 5381 5383 5385 5385 5383 5377 5370 5363 5358 5352 5351 5347 5345 5348 5343 5352 5360 5371 5395 5421 5444 5467 5484 5504 5525 5542 5582 5598 5614 5612 5609 5615 5619 5618 5627 5632 5636 5639 5640 5641 5642 5642
5368 5371 5373 5374 5373 5367 5361 5356 5351 5345 5339 5335 5334 5333 5333 5331 5338 5344 5352 5372 5391 5425 5450 5467 5490 5515 5544 5589 5598 5608 5605 5602 5605 5613 5610 5619 5625 5632 5636 5638 5642 5640 5640
5360 5362 5364 5363 5357 5353 5351 5348 5344 5340 5332 5327 5324 5322 5322 5325 5330 5330 5338 5355 5371 5398 5435 5458 5485 5519 5538 5588 5599 5600 5603 5608 5617 5615 5612 5624 5627 5632 5635 5637 5638 5637 5635
5350 5351 5351 5349 5348 5347 5346 5341 5336 5336 5337 5339 5336 5334 5327 5325 5323 5321 5325 5340 5357 5387 5418 5451 5477 5515 5538 5567 5592 5602 5608 5608 5600 5605 5606 5619 5625 5629 5631 5631 5632 5632 5633
5340 5340 5339 5337 5339 5341 5338 5337 5337 5338 5341 5340 5337 5345 5348 5335 5330 5320 5319 5332 5351 5384 5415 5446 5475 5502 5526 5547 5576 5581 5582 5586 5590 5597 5600 5609 5619 5622 5624 5625 5626 5630 5632
5327 5327 5326 5327 5330 5334 5333 5334 5335 5335 5336 5334 5336 5352 5358 5347 5335 5328 5327 5335 5355 5396 5429 5459 5473 5495 5513 5533 5548 5584 5590 5591 5597 5589 5599 5603 5609 5612 5607 5620 5623 5626 5627